Orbital Elements at Epoch 2459000.5 (2020-May-31.0) TDB
Reference: JPL 20 (heliocentric ecliptic J2000)
Element | Value | Uncertainty (1-sigma) | Units |
e | .1328788437442783 | 3.2008e-08 | |
a | 3.15424552105535 | 1.7339e-08 | au |
q | 2.735113023331947 | 9.8661e-08 | au |
i | 4.594309815494281 | 5.0909e-06 | deg |
node | 341.5949855167669 | 4.5821e-05 | deg |
peri | 107.0028729663138 | 5.1156e-05 | deg |
M | 68.37657905739337 | 2.051e-05 | deg |
tp | 2458611.860859022737 (2019-May-08.36085902) | 0.00011643 | TDB |
period | 2046.169794987523 5.60 | 1.6872e-05 4.619e-08 | d yr |
n | .1759384782640656 | 1.4508e-09 | deg/d |
Q | 3.573378018778754 | 1.9644e-08 | au |
|
| | Orbit Determination Parameters
Additional Information
|